Torna al catalogo

STARLINK-37356

AttivoComunicazioniVLEO
NORAD 68704·PAYLOAD·🇺🇸 United States

Lanciato Apr 14, 2026 da Cape Canaveral Space Force Station

Loading…

Prossimi Passaggi (prossime 24 ore)

TLE

AggiornatoSource: CelesTrak SupGP

Epoca: Sep 14, 2026, 21:33 UTC

1 68704C 26081F   26257.89840278  .00040997  00000+0  12110-2 0  2572
2 68704  53.1572 232.1327 0001355 104.5167 315.2480 15.34375549    18

Traccia STARLINK-37356 in tempo reale con AllMySat

Download on the App Store